Location: Spruce Knob
(38.6995°N, 79.5330°W)
Time: 19:23:47
(UTC-04:00)

A-11 Canister half - Pass Details

Date: 03 February 2022
Orbit: 1513 x 1686 km, 47.2° (Epoch: 26 May)

Event Time Altitude Azimuth Distance (km) Brightness Sun altitude
Rises 14:40:13 0° 240° (WSW) 4,849 12.6 27.3°
Reaches altitude 10° 14:43:23 10° 241° (WSW) 3,842 12.4 26.9°
Maximum altitude 14:53:11 85° 330° (NNW) 1,585 9.5 25.8°
Drops below altitude 10° 15:02:39 10° 60° (ENE) 3,717 10.6 24.6°
Sets 15:05:40 0° 61° (ENE) 4,686 11.0 24.3°
